Rome, GA

6:53 PM EST on December 15, 2019 (GMT -0500)
Russell

Weather History for KRMG - November, 2019

Change the Weather History Date:

Friday, November 22, 2019

  Actual Average Record
Temperature  
Mean Temperature 54 °F 49 °F  
Max Temperature 62 °F 60 °F 75 °F (2010)
Min Temperature 47 °F 37 °F 15 °F (2008)
Degree Days  
Heating Degree Days 10 16  
Month to date heating degree days 355 286  
Since 1 July heating degree days 441 463  
Growing Degree Days 4 (Base 50)    
Moisture  
Dew Point 53 °F    
Average Humidity 86    
Maximum Humidity 94    
Minimum Humidity 64    
Precipitation  
Precipitation 0.20 in 0.18 in 0.61 in (2004)
Month to date precipitation 1.40 3.35  
Year to date precipitation 52.00 46.04  
Sea Level Pressure  
Sea Level Pressure 30.02 in    
Wind  
Wind Speed 1 mph ()    
Max Wind Speed 14 mph    
Max Gust Speed -    
Visibility 4.5 miles    
Events Rain    
T = Trace of Precipitation, MM = Missing Value Source: Averaged Metar Reports

Daily Weather History Graph

Daily Weather History Graph

Search for Another Location

Airport or City:

Astronomy

Nov. 22, 2019 Rise Set
Actual Time 7:20 AM EST 5:32 PM EST
Civil Twilight 6:53 AM EST 5:59 PM EST
Nautical Twilight 6:22 AM EST 6:30 PM EST
Astronomical Twilight 5:52 AM EST 7:00 PM EST
Moon 2:41 AM EST (11/22) 3:19 PM EST (11/22)
Length of Visible Light 11h 06m
Length of Day
10h 12m
Waning Crescent, 20% of the Moon is Illuminated
Nov 22
Waning Crescent
Nov 26
New
Dec 4
First Quarter
Dec 12
Full
Dec 18
Last Quarter

Hourly Weather History & Observations

Time (EST) Temp. Dew Point Humidity Pressure Visibility Wind Dir Wind Speed Gust Speed Precip Events Conditions
12:53 AM 50.0 °F 43.0 °F 77% 30.11 in 10.0 mi Calm Calm - N/A   Clear
1:53 AM 50.0 °F 43.0 °F 77% 30.10 in 10.0 mi Calm Calm - N/A   Clear
2:53 AM 48.9 °F 43.0 °F 80% 30.10 in 10.0 mi Calm Calm - N/A   Overcast
3:53 AM 48.0 °F 43.0 °F 83% 30.09 in 10.0 mi Calm Calm - N/A   Scattered Clouds
4:53 AM 50.0 °F 43.0 °F 77% 30.06 in 10.0 mi NW 6.9 mph - N/A   Partly Cloudy
5:53 AM 48.9 °F 44.1 °F 83% 30.06 in 10.0 mi ESE 3.5 mph - N/A   Scattered Clouds
6:53 AM 50.0 °F 44.1 °F 80% 30.09 in 10.0 mi Calm Calm - N/A   Mostly Cloudy
7:02 AM 50.0 °F 45.0 °F 83% 30.09 in 10.0 mi Calm Calm - N/A   Mostly Cloudy
7:53 AM 51.1 °F 46.0 °F 83% 30.09 in 10.0 mi East 4.6 mph - N/A   Overcast
9:27 AM 54.0 °F 46.9 °F 77% 30.09 in 10.0 mi SE 4.6 mph - N/A   Scattered Clouds
9:53 AM 55.9 °F 46.9 °F 72% 30.09 in 10.0 mi North 3.5 mph - N/A   Scattered Clouds
10:11 AM 55.9 °F 46.9 °F 72% 30.10 in 10.0 mi Calm Calm - N/A   Mostly Cloudy
10:34 AM 57.2 °F 46.4 °F 67% 30.09 in 10.0 mi Calm Calm - N/A   Mostly Cloudy
10:53 AM 57.9 °F 46.9 °F 67% 30.07 in 10.0 mi SE 5.8 mph - N/A   Mostly Cloudy
11:53 AM 61.0 °F 48.9 °F 64% 30.05 in 10.0 mi West 3.5 mph - N/A   Overcast
12:46 PM 62.1 °F 50.0 °F 65% 30.03 in 10.0 mi East 3.5 mph - N/A   Overcast
12:53 PM 61.0 °F 51.1 °F 70% 30.02 in 8.0 mi Calm Calm - N/A   Overcast
1:53 PM 57.9 °F 54.0 °F 87% 30.00 in 3.0 mi Calm Calm - 0.02 in Rain Light Rain
2:02 PM 59.0 °F 55.0 °F 87% 30.00 in 2.5 mi East 3.5 mph - 0.00 in Rain Light Rain
2:07 PM 59.0 °F 55.0 °F 87% 30.00 in 2.5 mi ENE 3.5 mph - 0.01 in Rain Light Rain
2:15 PM 57.9 °F 55.0 °F 90% 30.00 in 4.0 mi ESE 3.5 mph - 0.01 in   Overcast
2:24 PM 57.9 °F 55.0 °F 90% 30.00 in 2.5 mi Calm Calm - 0.01 in Rain Light Rain
2:26 PM 57.9 °F 55.0 °F 90% 30.00 in 2.0 mi Calm Calm - 0.01 in Rain Light Rain
2:34 PM 57.9 °F 55.0 °F 90% 30.00 in 1.8 mi Calm Calm - 0.02 in Rain Light Rain
2:53 PM 57.9 °F 55.9 °F 93% 29.98 in 2.5 mi Calm Calm - 0.02 in   Overcast
3:01 PM 57.9 °F 55.0 °F 90% 29.99 in 3.0 mi Calm Calm - N/A   Overcast
3:17 PM 57.9 °F 55.9 °F 93% 29.99 in 2.0 mi Calm Calm - 0.01 in Rain Light Rain
3:24 PM 59.0 °F 55.9 °F 90% 30.00 in 1.8 mi Calm Calm - 0.01 in Rain Light Rain
3:49 PM 59.0 °F 55.4 °F 88% 30.00 in 1.8 mi NW 3.5 mph - 0.02 in Rain Light Rain
3:53 PM 57.9 °F 55.9 °F 93% 29.98 in 1.8 mi NNW 3.5 mph - 0.03 in   Overcast
4:00 PM 59.0 °F 55.9 °F 90% 29.99 in 2.0 mi Calm Calm - N/A   Overcast
4:09 PM 59.0 °F 55.9 °F 90% 29.99 in 1.8 mi NE 3.5 mph - N/A   Overcast
4:17 PM 59.0 °F 55.9 °F 90% 30.00 in 2.0 mi Calm Calm - N/A   Overcast
4:28 PM 59.0 °F 55.9 °F 90% 30.00 in 1.8 mi Calm Calm - N/A   Overcast
4:33 PM 59.0 °F 55.9 °F 90% 30.00 in 2.0 mi Calm Calm - N/A   Overcast
4:45 PM 59.0 °F 55.9 °F 90% 30.00 in 1.2 mi NE 3.5 mph - N/A   Overcast
4:53 PM 57.9 °F 55.9 °F 93% 29.99 in 1.0 mi NE 3.5 mph - 0.00 in Rain Light Rain
5:53 PM 57.9 °F 55.9 °F 93% 29.99 in 1.8 mi NE 3.5 mph - 0.03 in   Overcast
6:21 PM 57.9 °F 55.9 °F 93% 30.01 in 2.5 mi ENE 3.5 mph - 0.00 in Rain Light Rain
6:32 PM 57.2 °F 55.4 °F 94% 30.01 in 3.0 mi Calm Calm - N/A Rain Light Rain
6:53 PM 57.9 °F 55.9 °F 93% 30.00 in 2.5 mi Calm Calm - 0.02 in Rain Light Rain
7:15 PM 57.9 °F 55.9 °F 93% 30.01 in 1.8 mi Calm Calm - 0.01 in Rain Light Rain
7:25 PM 57.9 °F 55.9 °F 93% 30.01 in 1.5 mi Calm Calm - 0.01 in Rain Light Rain
7:53 PM 57.9 °F 55.9 °F 93% 29.99 in 1.8 mi Calm Calm - 0.04 in Rain Light Rain
8:02 PM 57.9 °F 55.9 °F 93% 30.00 in 1.8 mi Calm Calm - 0.00 in   Overcast
8:53 PM 57.9 °F 55.9 °F 93% 29.99 in 1.8 mi Calm Calm - 0.01 in   Overcast
9:03 PM 57.9 °F 55.9 °F 93% 30.00 in 1.8 mi Calm Calm - N/A   Overcast
9:12 PM 57.9 °F 55.9 °F 93% 29.99 in 1.8 mi Calm Calm - N/A   Overcast
9:19 PM 57.9 °F 55.9 °F 93% 30.00 in 2.0 mi Calm Calm - N/A   Overcast
9:32 PM 57.9 °F 55.9 °F 93% 29.99 in 1.8 mi Calm Calm - N/A   Overcast
9:53 PM 57.9 °F 55.9 °F 93% 29.99 in 1.8 mi Calm Calm - N/A   Overcast
10:53 PM 57.9 °F 55.9 °F 93% 29.97 in 1.5 mi Calm Calm - 0.02 in   Overcast
11:46 PM 57.9 °F 55.9 °F 93% 29.97 in 2.0 mi Calm Calm - 0.01 in   Overcast
11:53 PM 57.9 °F 55.9 °F 93% 29.96 in 2.0 mi Calm Calm - 0.01 in   Overcast